Pellston, MI

12:58 AM EST on November 19, 2017 (GMT -0500)
Pellston Regional Airport Of Emmet County

Weather History for KPLN - February, 2014

Change the Weather History Date:

Tuesday, February 18, 2014

  Actual Average Record
Temperature  
Mean Temperature 17 °F -  
Max Temperature 33 °F 31 °F 53 °F (1981)
Min Temperature 1 °F 10 °F -32 °F (1979)
Degree Days  
Heating Degree Days 48    
Moisture  
Dew Point 11 °F    
Average Humidity 83    
Maximum Humidity 96    
Minimum Humidity 61    
Precipitation  
Precipitation 0.04 in - - ()
Sea Level Pressure  
Sea Level Pressure 29.77 in    
Wind  
Wind Speed 3 mph (South)    
Max Wind Speed 12 mph    
Max Gust Speed -    
Visibility 5 miles    
Events Fog , Snow    
Averages and records for this station are not official NWS values.
T = Trace of Precipitation, MM = Missing Value Source: NWS Daily Summary

Daily Weather History Graph

Daily Weather History Graph

Search for Another Location

Airport or City:

Trip Planner

Search our weather history database for the weather conditions in past years. The results will help you decide how hot, cold, wet, or windy it might be!

Date:

Astronomy

Feb. 18, 2014 Rise Set
Actual Time 7:36 AM EST 6:10 PM EST
Civil Twilight 7:06 AM EST 6:40 PM EST
Nautical Twilight 6:31 AM EST 7:15 PM EST
Astronomical Twilight 5:57 AM EST 7:49 PM EST
Moon 10:17 PM EST (2/18) 8:55 AM EST (2/18)
Length of Visible Light 11h 34m
Length of Day
10h 34m
Waning Gibbous, 87% of the Moon is Illuminated
Feb 18
Waning Gibbous
Feb 22
Last Quarter
Mar 1
New
Mar 8
First Quarter
Mar 16
Full

Hourly Weather History & Observations

Time (EST) Temp. Windchill Dew Point Humidity Pressure Visibility Wind Dir Wind Speed Gust Speed Precip Events Conditions
12:29 AM 16.0 °F 6.3 °F 12.0 °F 84% 29.76 in 1.5 mi East 6.9 mph - 0.02 in Snow Light Snow
12:54 AM 16.0 °F 8.8 °F 12.9 °F 88% 29.79 in 1.5 mi East 4.6 mph - 0.03 in Snow Light Snow
1:14 AM 17.1 °F 10.0 °F 12.9 °F 84% 29.74 in 2.0 mi East 4.6 mph - 0.00 in Snow Light Snow
1:33 AM 17.1 °F - 14.0 °F 88% 29.74 in 3.0 mi Calm Calm - 0.00 in Snow Light Snow
1:54 AM 17.1 °F - 12.9 °F 84% 29.78 in 3.0 mi Calm Calm - 0.01 in Snow Light Snow
2:01 AM 17.1 °F - 12.9 °F 84% 29.74 in 2.0 mi Calm Calm - 0.00 in Snow Light Snow
2:17 AM 16.0 °F - 12.9 °F 88% 29.74 in 3.0 mi Calm Calm - 0.00 in Snow Light Snow
2:54 AM 16.0 °F 10.4 °F 12.9 °F 88% 29.79 in 6.0 mi WNW 3.5 mph - 0.00 in Snow Light Snow
3:17 AM 16.0 °F 10.4 °F 12.9 °F 88% 29.74 in 2.5 mi WNW 3.5 mph - 0.00 in Snow Light Snow
3:26 AM 16.0 °F 10.4 °F 12.9 °F 88% 29.75 in 3.0 mi WNW 3.5 mph - 0.00 in Snow Light Snow
3:54 AM 17.1 °F 10.0 °F 12.9 °F 84% 29.79 in 4.0 mi NNE 4.6 mph - 0.00 in Snow Light Snow
4:54 AM 12.9 °F 5.2 °F 10.0 °F 88% 29.82 in 8.0 mi WNW 4.6 mph - 0.00 in   Overcast
5:01 AM 14.0 °F 6.5 °F 10.9 °F 88% 29.78 in 10.0 mi West 4.6 mph - N/A   Overcast
5:27 AM 12.0 °F 4.1 °F 9.0 °F 88% 29.78 in 2.0 mi WNW 4.6 mph - 0.00 in Snow Light Snow
5:37 AM 12.0 °F 2.7 °F 9.0 °F 88% 29.79 in 4.0 mi WNW 5.8 mph - 0.00 in Snow Light Snow
5:54 AM 12.9 °F - 10.0 °F 88% 29.83 in 4.0 mi Calm Calm - 0.00 in Snow Light Snow
6:54 AM 10.0 °F - 8.1 °F 92% 29.84 in 6.0 mi Calm Calm - 0.00 in   Mostly Cloudy
7:03 AM 3.9 °F - 1.9 °F 91% 29.79 in 10.0 mi Calm Calm - N/A   Scattered Clouds
7:16 AM 6.1 °F - 3.9 °F 91% 29.79 in 1.5 mi Calm Calm - N/A   Clear
7:34 AM 1.9 °F - -0.0 °F 91% 29.80 in 0.5 mi Calm Calm - N/A Fog Light Freezing Fog
7:54 AM 1.9 °F - -0.0 °F 91% 29.86 in 0.8 mi Calm Calm - N/A   Clear
8:01 AM 1.9 °F - -0.9 °F 88% 29.81 in 2.0 mi Calm Calm - N/A   Clear
8:08 AM 1.9 °F - -0.0 °F 91% 29.82 in 10.0 mi Calm Calm - N/A   Clear
8:17 AM 3.0 °F - 1.0 °F 91% 29.82 in 1.8 mi Calm Calm - N/A   Clear
8:38 AM 1.9 °F - -0.0 °F 91% 29.82 in 3.0 mi Calm Calm - N/A   Clear
8:54 AM 6.1 °F - 3.9 °F 91% 29.86 in 4.0 mi Calm Calm - N/A   Clear
9:02 AM 3.9 °F -3.4 °F 3.0 °F 96% 29.81 in 1.8 mi East 3.5 mph - N/A   Clear
9:07 AM 6.1 °F - 3.0 °F 87% 29.81 in 3.0 mi Calm Calm - N/A   Clear
9:48 AM 15.8 °F - 10.4 °F 79% 29.81 in 1.0 mi Calm Calm - N/A   Clear
9:51 AM 17.6 °F 12.3 °F 12.2 °F 79% 29.81 in 0.8 mi Variable 3.5 mph - N/A   Mist
9:54 AM 18.0 °F - 12.9 °F 81% 29.86 in 0.8 mi Calm Calm - N/A   Haze
9:59 AM 17.1 °F 10.0 °F 12.9 °F 84% 29.81 in 1.2 mi SSW 4.6 mph - N/A   Partly Cloudy
10:05 AM 18.0 °F 12.7 °F 12.9 °F 81% 29.81 in 5.0 mi SSW 3.5 mph - N/A   Haze
10:54 AM 21.0 °F 11.4 °F 15.1 °F 78% 29.87 in 10.0 mi SW 8.1 mph - N/A   Clear
11:54 AM 21.9 °F 10.4 °F 16.0 °F 78% 29.86 in 10.0 mi SW 11.5 mph - N/A   Clear
12:54 PM 26.1 °F 16.2 °F 16.0 °F 66% 29.81 in 10.0 mi South 10.4 mph - N/A   Clear
1:54 PM 28.9 °F 22.8 °F 18.0 °F 64% 29.80 in 10.0 mi Variable 5.8 mph - N/A   Clear
2:54 PM 30.0 °F 21.1 °F 19.9 °F 66% 29.74 in 10.0 mi SE 10.4 mph - N/A   Clear
3:54 PM 32.0 °F 25.6 °F 19.9 °F 61% 29.70 in 10.0 mi East 6.9 mph - N/A   Clear
4:54 PM 33.1 °F 25.5 °F 21.0 °F 61% 29.68 in 10.0 mi East 9.2 mph - N/A   Clear
5:54 PM 30.0 °F 25.2 °F 21.0 °F 69% 29.68 in 10.0 mi ESE 4.6 mph - N/A   Clear
6:54 PM 25.0 °F 20.7 °F 18.0 °F 75% 29.68 in 10.0 mi SSE 3.5 mph - N/A   Clear
7:54 PM 23.0 °F 15.8 °F 17.1 °F 78% 29.67 in 10.0 mi SSE 5.8 mph - N/A   Clear
8:54 PM 27.0 °F 21.6 °F 18.0 °F 69% 29.64 in 10.0 mi SSE 4.6 mph - N/A   Clear
10:54 PM 19.0 °F - 16.0 °F 88% 29.60 in 10.0 mi Calm Calm - N/A   Clear
11:38 PM 17.1 °F - 14.0 °F 88% 29.56 in 10.0 mi Calm Calm - N/A   Mostly Cloudy
11:54 PM 18.0 °F - 14.0 °F 84% 29.59 in 10.0 mi Calm Calm - N/A   Overcast